Find Starlink 5187

NORAD ID: 54065 Int'l Des: 2022-136 Owner: SPXS Country: US Constellation: starlink operational
LEOCIRCULAR

当前视图

正在加载3D地球...

About Starlink 5187

Starlink 5187 (NORAD 54065) is a starlink constellation satellite (v1.5) launched Oct 20, 2022 by SPXS of US. It operates in LEO, CIRCULAR orbit with a mass of 305.00 kg.

即将过境

Passes for default location (London). Set your location on the main map for personalized predictions.

高度历史

Loading altitude history...

两行轨道根数

1 54065U 22136Q 26254.93517671 .00000197 00000-0 16558-4 0 9998
2 54065 53.1599 218.0977 0001213 87.2349 272.8792 15.35396553215097
Epoch: Sep 11, 2026 • Age: 7 hours

当前状态

高度 462.3 km
远地点 / 近地点 N/A
速度 7.64 km/s
星下点 38.16°N, 69.13°W
发射日期 Oct 20, 2022
运行时间 3.8 years
类型 internet

技术详情

分类 Payload
质量 305.00 kg
干质量 290.00 kg
总质量 305.00 kg
长度 0.20 m
直径 2.80 m
跨度 9.00 m
形状 Box + pan
制造商 SPXS
平台类型 Starlink
阶段状态 In Orbit
所有者/国家 SPXS/US

Most Searched